Wind_Speed
8 8 9 9 9 9 9 10 10 10 10 10 10 10 10 9 8 8 7 6 5 4 3 3 4 6 8 10 12 14 16 19 21 23 25 27 29 30 32 34 36 38 39
7 8 8 9 9 9 9 10 10 10 10 10 10 9 9 9 8 7 7 6 5 5 4 3 3 4 7 9 10 12 14 16 18 20 22 24 26 28 31 33 35 37 39
7 8 8 9 9 9 10 10 10 10 10 10 10 9 9 9 8 8 7 6 6 5 5 4 3 4 6 8 9 11 13 15 16 18 21 23 24 26 28 31 33 35 38
7 7 8 8 9 9 10 11 11 11 11 11 11 10 10 9 9 9 8 7 7 6 6 5 5 5 6 7 8 10 12 13 15 17 18 21 23 24 26 28 30 32 35
6 7 7 8 9 9 10 11 12 12 12 12 12 11 11 11 10 10 9 9 8 8 7 7 7 7 7 8 9 10 11 13 14 16 17 19 21 23 25 27 28 29 31
7 7 7 8 9 10 11 11 12 12 13 13 12 12 12 12 12 11 11 11 10 10 9 9 9 9 9 10 10 11 11 13 14 15 16 17 19 20 22 24 26 27 29
8 7 8 8 9 10 10 11 12 12 13 13 13 13 13 13 12 12 12 12 12 11 11 11 11 11 12 12 12 13 13 14 14 15 16 17 18 20 21 22 23 25 27
9 9 8 9 9 10 10 11 12 13 13 14 14 14 14 13 13 13 13 13 13 13 13 13 13 13 13 14 14 14 15 15 16 16 17 18 19 20 21 22 23 24 26
11 10 9 9 10 10 11 12 12 13 14 14 14 15 14 14 14 14 14 14 14 14 14 14 14 14 15 15 15 16 16 16 17 17 18 18 19 20 21 22 23 24 25
13 12 11 11 11 11 12 12 13 14 14 15 15 15 15 15 15 15 15 16 16 16 16 16 16 16 16 17 17 17 17 18 18 18 19 19 20 20 21 22 23 24 25
15 14 14 13 12 12 13 13 14 14 15 15 15 16 16 16 16 16 17 18 18 18 18 18 18 18 19 19 19 19 19 19 19 20 20 20 21 21 21 22 23 24 25
17 16 16 15 15 14 14 14 15 15 15 16 16 17 17 17 18 18 19 19 20 20 20 20 21 21 21 21 21 21 21 21 21 21 22 22 22 22 22 23 23 24 24
19 19 18 17 17 16 16 16 16 16 17 17 18 18 19 19 20 20 20 21 22 22 23 23 23 23 23 23 23 23 23 23 23 24 24 24 24 24 24 24 24 25 25
22 21 20 20 19 19 18 18 18 18 19 19 20 21 21 22 22 22 23 23 24 24 24 25 25 25 25 25 25 25 25 25 26 26 26 26 26 26 26 26 26 26 26
25 24 23 22 22 21 21 21 21 21 21 21 22 23 24 24 24 25 25 26 26 26 26 26 26 27 27 27 27 27 27 27 27 27 27 28 28 28 28 28 28 28 29
27 26 26 25 24 24 23 23 23 23 23 24 24 25 26 27 27 28 28 29 29 28 28 28 28 28 28 29 29 29 29 29 29 29 29 29 30 30 30 31 31 31 31
30 29 28 27 27 26 26 25 25 25 26 26 27 27 28 29 30 30 31 31 31 31 30 30 30 30 30 30 30 31 31 31 31 31 31 32 32 32 33 33 34 34 34
32 31 30 30 29 29 28 28 28 28 28 28 29 30 30 31 31 32 32 32 33 32 32 32 32 32 32 32 32 33 33 33 33 34 34 35 35 35 35 36 36 36 37
33 33 32 32 31 31 31 31 30 30 30 31 31 32 32 32 33 33 33 34 34 34 33 33 33 34 34 34 34 34 35 35 36 36 37 37 38 38 38 39 40 40 40
35 34 34 33 33 33 33 33 33 33 33 33 33 34 34 34 34 34 35 35 35 35 35 35 35 35 36 36 36 36 37 37 38 39 39 40 41 41 42 42 43 43 44
37 36 35 35 35 35 35 35 35 35 35 35 36 36 36 36 36 36 36 37 37 37 36 37 37 37 37 37 38 38 39 39 40 41 42 43 44 45 46 46 47 47 47
39 38 37 37 37 36 36 37 37 37 37 37 38 38 38 38 38 38 38 39 39 39 38 38 38 39 39 39 40 40 41 42 43 44 45 46 47 48 49 49 50 51 51
41 40 40 39 39 39 39 39 39 39 39 39 40 40 40 40 40 40 40 41 41 40 40 40 40 40 40 41 42 43 44 45 46 47 48 49 50 51 52 53 54 56 57
43 42 42 41 41 41 41 40 40 41 41 41 42 42 42 42 42 42 42 42 42 42 42 42 42 42 42 43 44 45 46 48 49 50 51 52 53 54 56 57 58 60 61
45 44 44 43 43 43 43 42 42 43 43 43 44 44 44 44 44 44 44 44 44 43 43 43 43 43 44 45 46 47 49 50 51 52 53 54 56 57 59 61 62 63 64
47 46 46 45 45 45 44 44 44 44 45 45 45 45 45 45 45 45 45 45 44 44 43 43 44 44 45 46 48 49 50 52 53 55 56 57 59 60 62 63 64 65 65
Wind_Direction
348 353 356 358 360 2 5 7 9 10 12 15 16 18 20 22 23 23 23 21 17 9 341 285 254 241 239 239 242 244 246 248 247 246 245 245 245 244 243 244 246 246 246
343 350 353 356 358 359 360 0 1 1 2 3 4 6 8 11 12 11 10 9 7 2 352 325 274 250 247 247 249 249 250 251 250 250 248 248 248 247 246 247 248 247 247
337 345 351 354 356 358 358 356 354 352 350 350 350 350 351 353 354 355 353 353 351 349 344 334 310 278 261 256 255 255 254 254 254 253 252 250 251 250 250 250 250 250 249
327 339 347 351 353 354 354 353 350 346 343 341 339 338 337 337 338 337 336 334 333 332 332 325 311 297 281 273 266 263 261 260 259 258 258 256 256 256 255 255 255 254 253
315 328 339 346 350 351 350 348 347 345 341 338 335 332 329 327 325 324 322 320 318 316 314 313 307 298 290 282 276 273 270 268 265 264 263 262 260 260 260 260 260 259 258
302 313 325 335 341 346 347 346 345 344 342 339 334 330 327 324 320 318 315 312 310 309 308 306 303 298 292 286 280 278 276 273 269 268 267 266 264 263 264 262 262 262 262
287 300 311 321 330 336 340 343 344 343 342 340 336 332 328 323 319 316 313 310 307 305 304 304 302 298 294 290 286 281 278 277 275 273 271 269 267 265 265 264 262 263 264
276 288 300 310 319 327 332 335 337 339 339 338 336 333 329 325 320 317 314 311 308 306 304 302 300 297 294 292 289 286 284 281 279 278 276 274 271 268 267 267 265 266 266
269 278 289 299 307 316 323 328 331 333 335 335 334 332 329 326 322 317 314 311 308 305 303 301 299 297 294 292 289 288 286 285 283 281 281 279 277 274 272 270 270 269 269
265 272 280 288 297 306 313 319 324 327 330 331 331 330 329 325 322 318 314 311 308 305 302 300 298 295 293 292 290 288 287 285 283 282 281 280 279 277 275 273 272 272 272
262 268 274 281 289 298 305 311 316 321 325 327 328 328 326 324 321 317 313 310 308 305 302 299 297 295 293 291 290 289 287 286 284 282 281 281 280 279 279 277 275 275 274
260 264 269 276 282 290 297 303 308 313 317 321 322 323 323 321 319 315 312 309 307 304 301 299 296 294 293 291 290 288 287 286 285 284 282 281 281 280 279 279 278 277 276
258 262 267 271 277 284 290 295 301 306 310 314 316 318 318 318 317 314 311 308 306 303 301 298 296 293 291 290 289 288 287 287 286 286 284 283 283 282 281 280 278 277 277
257 261 264 268 273 279 284 290 295 300 304 308 311 312 313 314 314 312 311 308 305 303 301 298 296 293 291 289 288 287 287 287 286 286 285 285 284 284 283 282 281 279 279
256 259 263 266 270 275 281 286 290 295 299 303 306 308 309 310 310 310 309 308 306 303 300 298 295 293 291 290 288 287 287 287 287 287 286 286 285 285 284 284 283 283 281
255 258 261 265 268 273 277 282 287 291 295 298 301 304 306 307 307 307 307 307 306 304 301 298 296 294 292 290 289 288 287 287 287 287 287 287 286 286 285 284 283 283 282
254 257 260 263 267 271 275 279 283 287 291 295 298 301 304 305 305 305 305 305 304 303 300 298 296 295 294 292 290 289 288 287 287 287 287 287 286 286 286 285 285 284 283
254 256 259 262 266 270 274 277 281 285 288 292 295 298 301 302 303 304 304 303 303 301 299 297 296 294 294 293 292 290 290 289 288 288 287 287 287 287 286 286 285 284 284
253 255 259 262 265 269 272 276 280 283 287 290 293 296 299 301 302 302 303 303 302 300 298 296 295 294 293 292 291 290 290 289 289 288 288 288 288 287 287 287 286 286 285
252 255 258 261 264 268 271 275 279 282 286 289 293 296 298 300 301 301 302 302 302 300 298 296 295 294 293 292 291 290 290 290 290 289 289 288 288 288 288 287 287 286 286
252 255 257 261 264 267 271 275 279 282 286 289 292 295 297 299 300 300 301 301 301 299 298 296 295 293 292 292 291 291 291 291 291 291 290 290 289 289 288 288 287 287 286
253 255 258 261 264 268 271 275 279 282 285 288 292 294 296 298 298 299 300 301 300 299 298 297 295 294 293 292 292 291 291 292 292 292 291 291 291 290 289 288 287 286 285
252 255 258 261 265 268 272 275 278 282 285 288 291 294 295 296 297 298 299 299 299 298 297 296 296 295 294 293 293 292 292 292 292 292 292 292 291 291 290 289 288 287 286
252 255 258 262 265 269 272 275 278 282 285 288 291 293 294 295 296 297 298 298 298 297 296 295 295 294 294 294 294 294 294 294 293 293 293 293 292 292 291 290 289 288 287
252 255 259 262 265 268 272 275 278 282 285 288 291 293 294 294 295 296 297 297 296 296 295 295 294 294 294 294 295 295 295 295 295 294 294 294 294 293 292 291 290 289 288
252 255 258 261 265 268 272 275 279 282 285 288 290 292 293 294 295 295 296 296 296 295 295 294 294 294 295 295 296 296 296 296 296 296 296 296 296 295 294 293 292 290 289
Height
5819 5816 5814 5811 5809 5806 5804 5801 5799 5797 5795 5792 5790 5788 5786 5784 5783 5781 5779 5778 5777 5775 5774 5773 5773 5773 5774 5775 5776 5777 5778 5779 5781 5782 5784 5786 5788 5790 5792 5795 5797 5799 5802
5818 5816 5813 5811 5808 5806 5803 5801 5799 5797 5795 5792 5790 5788 5786 5785 5783 5781 5780 5778 5776 5775 5774 5772 5771 5771 5772 5772 5773 5773 5774 5775 5776 5776 5778 5779 5781 5782 5784 5786 5788 5790 5792
5817 5815 5812 5810 5807 5805 5803 5800 5798 5796 5794 5792 5790 5788 5786 5784 5782 5781 5779 5778 5776 5775 5773 5772 5771 5770 5770 5770 5770 5770 5770 5770 5771 5771 5772 5773 5774 5775 5776 5777 5778 5780 5782
5815 5813 5811 5809 5807 5804 5802 5799 5797 5795 5793 5790 5788 5787 5785 5783 5781 5780 5778 5777 5775 5774 5772 5771 5770 5769 5768 5767 5767 5767 5766 5766 5766 5766 5766 5767 5767 5767 5768 5768 5769 5770 5771
5814 5812 5810 5808 5805 5803 5801 5798 5796 5793 5791 5789 5787 5785 5783 5781 5780 5778 5777 5775 5774 5772 5771 5769 5768 5767 5766 5765 5764 5763 5763 5762 5761 5761 5761 5761 5761 5761 5761 5761 5761 5761 5762
5811 5810 5808 5806 5804 5802 5799 5797 5795 5792 5790 5787 5785 5783 5781 5779 5778 5776 5775 5773 5772 5770 5769 5767 5766 5765 5763 5762 5761 5760 5759 5758 5757 5756 5755 5755 5754 5754 5753 5753 5753 5753 5754
5809 5808 5806 5804 5802 5800 5798 5796 5793 5791 5788 5786 5783 5781 5779 5777 5775 5773 5772 5770 5769 5768 5766 5765 5763 5762 5760 5759 5758 5756 5755 5754 5752 5751 5750 5749 5748 5748 5747 5747 5746 5746 5746
5806 5805 5803 5802 5800 5798 5796 5794 5791 5789 5786 5784 5781 5779 5776 5774 5773 5771 5769 5767 5766 5764 5763 5761 5760 5758 5757 5755 5754 5752 5751 5749 5748 5746 5745 5744 5743 5742 5741 5740 5739 5739 5738
5802 5801 5800 5799 5797 5796 5794 5791 5789 5787 5784 5782 5779 5776 5774 5772 5770 5768 5766 5764 5762 5761 5759 5758 5756 5754 5753 5751 5749 5748 5746 5744 5743 5741 5740 5739 5737 5736 5735 5734 5733 5732 5731
5798 5797 5796 5795 5794 5792 5790 5788 5786 5784 5782 5779 5777 5774 5771 5769 5767 5765 5763 5761 5759 5757 5756 5754 5752 5750 5748 5746 5744 5743 5741 5739 5738 5736 5735 5733 5732 5730 5729 5728 5726 5725 5724
5793 5793 5792 5791 5790 5788 5787 5785 5783 5781 5778 5776 5774 5771 5769 5766 5764 5762 5759 5757 5755 5753 5751 5749 5747 5745 5743 5741 5739 5737 5735 5734 5732 5730 5728 5727 5725 5724 5722 5721 5719 5718 5717
5787 5787 5787 5786 5785 5784 5782 5781 5779 5777 5775 5772 5770 5768 5765 5763 5760 5758 5756 5753 5751 5748 5746 5744 5742 5740 5738 5736 5734 5732 5730 5728 5726 5724 5722 5721 5719 5717 5716 5714 5712 5711 5709
5781 5781 5781 5780 5780 5779 5777 5776 5774 5772 5770 5768 5766 5763 5761 5758 5756 5753 5751 5748 5745 5743 5741 5738 5736 5734 5732 5730 5728 5726 5724 5722 5720 5718 5716 5714 5712 5710 5708 5707 5705 5704 5702
5774 5774 5774 5774 5773 5772 5771 5770 5769 5767 5765 5763 5761 5758 5756 5753 5751 5748 5745 5743 5740 5737 5734 5732 5730 5727 5725 5723 5721 5719 5717 5715 5713 5711 5709 5707 5705 5703 5701 5699 5697 5696 5694
5766 5767 5767 5767 5766 5766 5765 5764 5762 5761 5759 5757 5755 5752 5750 5747 5745 5742 5739 5736 5733 5730 5728 5725 5723 5720 5718 5716 5714 5712 5710 5708 5705 5703 5701 5699 5697 5695 5693 5691 5689 5687 5686
5758 5758 5759 5759 5759 5758 5757 5756 5755 5754 5752 5750 5748 5746 5743 5740 5737 5735 5732 5729 5726 5723 5720 5717 5715 5712 5710 5708 5705 5703 5701 5699 5697 5695 5693 5691 5689 5687 5685 5683 5681 5679 5677
5749 5749 5750 5750 5750 5750 5749 5748 5747 5746 5744 5743 5740 5738 5736 5733 5730 5727 5724 5720 5717 5714 5712 5709 5706 5704 5701 5699 5697 5694 5692 5690 5688 5686 5684 5682 5680 5678 5675 5673 5671 5669 5667
5739 5740 5740 5741 5741 5741 5740 5740 5739 5738 5736 5735 5733 5730 5728 5725 5722 5718 5715 5712 5709 5705 5703 5700 5697 5695 5692 5690 5687 5685 5683 5680 5678 5676 5674 5672 5669 5667 5665 5662 5660 5658 5656
5728 5730 5730 5731 5731 5731 5731 5730 5729 5728 5727 5726 5724 5721 5719 5716 5713 5710 5706 5703 5700 5696 5693 5690 5688 5685 5683 5680 5678 5675 5673 5670 5668 5665 5663 5660 5658 5655 5653 5650 5648 5645 5643
5717 5719 5720 5721 5721 5721 5721 5720 5719 5718 5717 5716 5714 5712 5709 5706 5703 5700 5697 5693 5690 5687 5683 5681 5678 5675 5672 5670 5667 5664 5662 5659 5657 5654 5651 5648 5646 5643 5640 5637 5634 5631 5629
5706 5707 5709 5710 5710 5710 5710 5710 5709 5708 5707 5705 5703 5701 5698 5696 5693 5690 5686 5683 5680 5676 5673 5670 5667 5664 5661 5659 5656 5653 5650 5647 5644 5641 5638 5635 5632 5629 5625 5622 5619 5616 5613
5694 5696 5697 5698 5699 5699 5699 5699 5698 5697 5696 5694 5692 5690 5687 5685 5682 5679 5675 5672 5669 5665 5662 5659 5655 5652 5649 5647 5644 5641 5638 5634 5631 5628 5624 5621 5617 5613 5610 5606 5603 5600 5597
5682 5684 5685 5686 5687 5687 5687 5687 5686 5685 5684 5682 5680 5678 5676 5673 5670 5667 5664 5660 5657 5653 5650 5647 5644 5640 5637 5634 5631 5627 5624 5621 5617 5613 5609 5606 5601 5597 5593 5590 5586 5582 5578
5669 5671 5672 5674 5674 5675 5675 5675 5674 5673 5672 5670 5668 5666 5663 5661 5658 5655 5652 5648 5645 5641 5638 5634 5631 5628 5624 5621 5617 5613 5609 5605 5601 5597 5593 5589 5585 5580 5575 5571 5566 5562 5557
5655 5657 5659 5660 5661 5662 5662 5662 5662 5661 5659 5658 5656 5653 5651 5648 5645 5642 5639 5635 5632 5628 5624 5621 5618 5614 5611 5607 5603 5598 5594 5590 5585 5580 5576 5571 5566 5561 5555 5550 5545 5540 5535
5641 5643 5645 5647 5648 5649 5649 5649 5649 5648 5646 5644 5642 5640 5637 5634 5631 5628 5625 5622 5618 5614 5611 5607 5604 5600 5596 5592 5588 5583 5578 5573 5568 5562 5557 5552 5546 5540 5534 5528 5522 5516 5511